Flag for U.S.A. Weather past 2 weeks in Racine, Wisconsin, U.S.A.

Now
51 °F

Sunny.


Feels Like: 49 °F
Forecast: 41 / 54 °F
Wind: 6 mph from Southeast

Location: Batten International Airport

Current Time: Oct 22, 2014 at 4:42:32 PM

Latest Report: Oct 22, 2014 at 3:53 PM


Visibility: 10 mi

Pressure: 30.34 "Hg

Humidity: 61%

Dew point: 38 °F

Location of RacineLocation

Historic Weather in Racine — Graph

°F

Racine temperature yesterday

Maximum temperature yesterday: 49 °F (at 12:53 AM)
Minimum temperature yesterday: 43 °F (at 9:53 PM)
Average temperature yesterday: 47 °F

Past Weeks' High & Low Weather Summary

 TemperatureHumidityPressure
High65 °F (Oct 13, 11:53 PM)97% (Oct 13, 2:53 AM)30.40 "Hg (Oct 13, 2:53 AM)
Low34 °F (Oct 18, 10:53 PM)30% (Oct 8, 1:53 PM)29.51 "Hg (Oct 14, 11:53 AM)
Average51 °F76%29.96 "Hg
* Reported Oct 7 2:53 PM — Oct 22 2:53 PM, Racine, Weather by CustomWeather, © 2014

Note: Actual official high and low records may vary slightly from our data, if they occured in-between our weather recording intervals... More about our weather records

Advertising

Racine weather history for previous 24 hours

 ConditionsComfort  
Time TempWeatherWind HumidityBarometerVisibility
2:53 PM
Oct 22
51 °FSunny.7 mph63%30.35 "Hg10 mi
1:53 PM51 °FSunny.6 mph63%30.36 "Hg10 mi
12:53 PM51 °FPassing clouds.9 mph63%30.38 "Hg10 mi
11:53 AM51 °FPartly sunny.6 mph66%30.40 "Hg10 mi
10:53 AM50 °FPartly sunny.6 mph66%30.40 "Hg10 mi
9:53 AM50 °FPartly sunny.9 mph68%30.39 "Hg10 mi
8:53 AM47 °FPartly sunny.No wind83%30.39 "Hg10 mi
7:53 AM39 °FOvercast.No wind89%30.38 "Hg10 mi
6:53 AM37 °FPassing clouds.No wind89%30.36 "Hg10 mi
5:53 AM36 °FPassing clouds.3 mph92%30.35 "Hg10 mi
4:53 AM36 °FClear.5 mph89%30.34 "Hg10 mi
3:53 AM36 °FClear.5 mph89%30.32 "Hg10 mi
2:53 AM35 °FPassing clouds.3 mph92%30.32 "Hg10 mi
1:53 AM37 °FPassing clouds.No wind89%30.30 "Hg10 mi
12:53 AM41 °FPassing clouds.3 mph86%30.30 "Hg10 mi
11:53 PM
Oct 21
43 °FClear.5 mph79%30.29 "Hg10 mi
10:53 PM43 °FClear.7 mph79%30.29 "Hg10 mi
9:53 PM43 °FClear.8 mph76%30.30 "Hg10 mi
8:53 PM45 °FClear.10 mph65%30.29 "Hg10 mi
7:53 PM46 °FClear.12 mph68%30.27 "Hg10 mi
6:53 PM46 °FSunny.13 mph66%30.26 "Hg10 mi
5:53 PM46 °FScattered clouds.10 mph73%30.25 "Hg10 mi
4:53 PM48 °FPassing clouds.14 mph66%30.24 "Hg10 mi
Weather by CustomWeather, © 2014

See weather overviewHow to use our weather pages